Regional Weather Roundup
Issued by NWS

Home | Current Version | Previous Version | Text Only | Print | Product List | Glossary Off
Versions: 1 2 3 4 5 6 7 8 9 10 11 12 13 14 15 16 17 18 19 20 21 22 23 24 25 26 27 28 29 30 31 32 33 34 35 36 37 38 39 40 41 42 43 44 45 46 47 48 49 50

625
ASUS43 KLOT 220804
RWRIL

ILLINOIS REGIONAL WEATHER ROUNDUP
NATIONAL WEATHER SERVICE CHICAGO/ROMEOVILLE IL
300 AM CDT FRI SEP 22 2017

NOTE: "FAIR" INDICATES FEW OR NO CLOUDS BELOW 12,000 FEET WITH NO
SIGNIFICANT WEATHER AND/OR OBSTRUCTIONS TO VISIBILITY.

* THESE STATIONS ARE NOT UNDER NWS QUALITY CONTROL. THEY ALSO MAY NOT
  REPORT WEATHER SUCH AS PRECIPITATION OR FOG.

ILZ001-002-007-009-015-016-024-220900-
NORTHWEST ILLINOIS

CITY           SKY/WX    TMP DP  RH WIND       PRES   REMARKS
MOLINE         CLEAR     76  68  76 S7        29.99R
STERLING*      PTCLDY    73  69  87 CALM      30.01F
SAVANNA*       CLEAR     70  67  89 S3        30.00S
$$

ILZ003-004-008-010-011-017-018-220900-
NORTH CENTRAL ILLINOIS

CITY           SKY/WX    TMP DP  RH WIND       PRES   REMARKS
ROCKFORD       PTCLDY    70  67  90 S3        30.03S
FREEPORT*      MOCLDY    67  66  97 S5        30.03S
ROCHELLE*      PTCLDY    67  67  97 S6        30.03S
DE KALB*       CLOUDY    70  69  96 S5        30.04S
PERU*          CLOUDY    74  67  78 SW7       30.02F
$$

ILZ005-006-012>014-019>023-220900-
NORTHEAST ILLINOIS

CITY           SKY/WX    TMP DP  RH WIND       PRES   REMARKS
CHICAGO-OHARE  CLOUDY    77  68  73 S5        30.03R
CHICAGO-MIDWAY MOCLDY    79  68  69 S7        30.03S HX  81
AURORA         PTCLDY    73  71  93 SE3       30.03S
LANSING*       PTCLDY    71  68  89 S5        30.05S
JOLIET*        PTCLDY    73  71  92 CALM      30.04R
WAUKEGAN       CLOUDY    71  71 100 CALM      30.02S FOG
DUPAGE AIRPORT CLOUDY    74  70  87 S3        30.03S
KANKAKEE*      PTCLDY    68  67  96 CALM      30.05S
WHEELING       CLOUDY    76  71  85 SE3       30.03S
MORRIS*        CLOUDY    72  69  92 CALM      30.02S
ROMEOVILLE*    CLOUDY    72  68  88 SE7       30.04S
NORTHERLY ISL    N/A     79  65  62 S8          N/A  HX  81
$$

LMZ740>746-220900-
SOUTHERN LAKE MICHIGAN

STATION/POSITION SKY/WX   TEMP    WIND        PRES    VSBY  WAVE
                          AIR SEA DIR/SP/G                  HT/PER
                          (F)     (DEG/KT/KT) (MB)    (MI)  (FT/S)
SOUTHERN BUOY              72 69  140/ 10/ 12 1016.7          1/ 3
WILMETTE HARBOR            73 71  160/  8/ 10   N/A           1/ 2
HARRISON CRIB              78     180/ 14/ 14   N/A
BURNHAM HARBOR             79                   N/A
CALUMET HARBOR             78     190/  5/  7 1016.5S
BURNS HARBOR               76     190/  7/  8 1017.9S
MICHIGAN CITY              78     160/  8/ 10   N/A
MICHIGAN CITY 6N           73 70  180/  4/  4   N/A           1
ST. JOSEPH                 73 70  160/  4/  6 1017.2S         0
$$

ILZ025>027-034>036-040-047-049-050-058-095>099-220900-
WEST-CENTRAL ILLINOIS

CITY           SKY/WX    TMP DP  RH WIND       PRES   REMARKS
QUINCY         CLEAR     76  68  76 S7        30.00S
GALESBURG*     CLEAR     71  67  88 S3        30.02R
MACOMB*        CLEAR     70  68  94 S6        30.03S
JACKSONVILLE*  CLEAR     74  68  79 S7        30.02S
PITTSFIELD*    CLEAR     72  69  90 S5        30.03S
$$

ILZ028>032-037-038-041>044-048-051>054-059>061-220900-
CENTRAL ILLINOIS

CITY           SKY/WX    TMP DP  RH WIND       PRES   REMARKS
PONTIAC        PTCLDY    68  67  98 CALM      30.04S
BLOOMINGTON    CLOUDY    70  66  87 S8        30.06S
DECATUR        PTCLDY    71  65  81 S6        30.04F
PEORIA         CLEAR     74  68  81 S7        30.02S
LACON*         CLEAR     72  68  87 S5        30.01S
LINCOLN*       CLEAR     69  67  94 CALM      30.04R
SPRINGFIELD    CLEAR     75  69  81 S6        30.03S
TAYLORVILLE    PTCLDY    69  66  89 S5        30.04S
$$

ILZ033-039-045-046-055>057-062-063-220900-
EAST-CENTRAL ILLINOIS

CITY           SKY/WX    TMP DP  RH WIND       PRES   REMARKS
CHAMPAIGN      PTCLDY    70  65  84 S5        30.05
RANTOUL*       CLOUDY    71  68  90 CALM      30.06S
MATTOON        PTCLDY    72  69  90 S5        30.05S
$$

ILZ079-100>102-220900-
SOUTHWEST ILLINOIS

CITY           SKY/WX    TMP DP  RH WIND       PRES   REMARKS
ALTON          CLEAR     67  67 100 E3        30.03S
BELLEVILLE     CLEAR     68  65  88 NW1       30.05F
CAHOKIA*       CLEAR     73  68  84 S3        30.02S
SPARTA*        CLEAR     74  67  80 S3        30.04F
$$

ILZ064>066-069>071-074>076-080>082-084>086-088>090-092>094-220900-
SOUTH-CENTRAL ILLINOIS

CITY           SKY/WX    TMP DP  RH WIND       PRES   REMARKS
CARBONDALE     CLEAR     68  68 100 CALM      30.03F
CAIRO*         FOG       66  66 100 CALM      30.03S VSB 1/2
EFFINGHAM*     PTCLDY    67  66  97 E3        30.06S
MARION         CLEAR     72  72 100 CALM      30.05S
MT. VERNON       N/A     64  64 100 CALM      30.05S
CENTRALIA*     CLEAR     68  67  97 CALM      30.04S
SALEM*         CLEAR     70  66  88 CALM      30.05S
METROPOLIS*    CLEAR     68  67  98 CALM      30.04S FOG
$$

ILZ067-068-072-073-078-083-087-091-220900-
SOUTHEAST ILLINOIS

CITY           SKY/WX    TMP DP  RH WIND       PRES   REMARKS
LAWRENCEVILLE  PTCLDY    70  69  97 CALM      30.05F
FLORA*         CLEAR     69  67  93 CALM      30.05S
FAIRFIELD*     CLEAR     68  66  94 CALM      30.04S
HARRISBURG*    CLEAR     68  67  98 CALM      30.04F
ROBINSON*      PTCLDY    66  66  99 CALM      30.06S
CARMI*         PTCLDY    67  67  99 CALM      30.04S FOG
$$

ABBREVIATIONS USED IN REMARKS
   TC - TEMPERATURE IN CELSIUS
  WCI - WIND CHILL INDEX
   HX - HEAT INDEX
  VSB - VISIBILITY
$$





USA.gov is the U.S. government's official web portal to all federal, state and local government web resources and services.